ONEWEB-0139 (47285 NORAD) Tracking and Keplerian Element Data

This shows tracking and keplerian element data for the satellite.

Feedback or suggestion? Click here.




ElementValue
Catalog47285
NameONEWEB-0139
Epoch Orbit178
Epoch Day62.91667824
Epoch Year2021
RAAN15.7096
Inclination87.6441
Eccentricity0.0011373
Argument of Perigee5.3816
Mean Anonmoly341.1778
Mean Motion13.97508152
Decay Rate-0.00029392
L11 47285U 20100AD 21062.91667824 -.00029392 00000-0 -20995-1 0 9996
L22 47285 87.6441 15.7096 0011373 5.3816 341.1778 13.97508152 1782

Live tracking and technical data element details for ONEWEB-0139 (NORAD 47285). ONEWEB-0139 can be tracked NOW for your location showing map with azimuth and elevation plus other details from your city location.

Track the satellite on the map from your city or location and see movement details for azimuth, elevation, latitude, longitude, range, height, and movement on the map or in text.







IsCatalogInMostPopularTable: catalog: 47285, numindb: 28
Update: records affected: 1



GetName: 47285 ONEWEB-0139

Hit Count: updated at: Fri, 05 Mar 2021 06:33:28 GMT